Regional Weather Roundup
Issued by NWS

Home | Current Version | Previous Version | Graphics & Text | Print | Product List | Glossary On
Versions: 1 2 3 4 5 6 7 8 9 10 11 12 13 14 15 16 17 18 19 20 21 22 23 24 25 26 27 28 29 30 31 32 33 34 35 36 37 38 39 40 41 42 43 44 45 46 47 48 49 50
182
ASUS43 KBIS 010610
RWRND

NORTH DAKOTA REGIONAL WEATHER ROUNDUP
NATIONAL WEATHER SERVICE BISMARCK ND
100 AM CDT SAT OCT 01 2016

NOTE: "FAIR" INDICATES FEW OR NO CLOUDS BELOW 12,000 FEET WITH NO
SIGNIFICANT WEATHER AND/OR OBSTRUCTIONS TO VISIBILITY.


NDZ001>003-009>011-017-010700-
NORTHWEST NORTH DAKOTA

CITY           SKY/WX    TMP DP  RH WIND       PRES   REMARKS
WILLISTON      CLEAR     53  48  83 NW3       29.99R
6HR MIN TEMP:  53; 6HR MAX TEMP:  62; 6HR PCP: TRACE;

MINOT          CLEAR     54  47  77 SE8       30.04S
MINOT AFB      CLEAR     51  47  85 SE9       30.04S
$$

NDZ018>021-031>035-040>046-010700-
SOUTHWEST NORTH DAKOTA

CITY           SKY/WX    TMP DP  RH WIND       PRES   REMARKS
BISMARCK       PTCLDY    60  46  59 SE8       30.06F
6HR MIN TEMP:  60; 6HR MAX TEMP:  68;

DICKINSON      CLEAR     50  44  80 SE10      29.99S
GARRISON         N/A     56  47  71 SE8       30.04S
6HR MIN TEMP:  54; 6HR MAX TEMP:  64;

HETTINGER ARPT CLEAR     53  45  74 E7        30.02S
$$

NDZ004>008-012>016-024-026-027-054-010700-
NORTHEAST NORTH DAKOTA

CITY           SKY/WX    TMP DP  RH WIND       PRES   REMARKS
GRAND FORKS    PTCLDY    56  49  77 SE7       30.17S
GRND FRKS AFB  PTCLDY    54  50  85 S6        30.17S
DEVILS LAKE    CLOUDY    58  49  72 S12       30.14S
$$

NDZ022-023-025-028>030-036>039-047>053-010700-
SOUTHEAST NORTH DAKOTA

CITY           SKY/WX    TMP DP  RH WIND       PRES   REMARKS
FARGO          PTCLDY    57  48  72 SE10      30.17S
6HR MIN TEMP:  57; 6HR MAX TEMP:  66;

JAMESTOWN      CLOUDY    56  48  74 SE10      30.14R
$$





USA.gov is the U.S. government's official web portal to all federal, state and local government web resources and services.